User: anonymous   Login
Location: Cincinnati Observatory Center
(39.1389°N, 84.4225°W)
Time: 23:04:09
(UTC-04:00)
Language:

HST - Orbit

View from above orbital plane
View from above orbital plane
View from above satellite
View from above satellite

Ground track
Ground track

The orbit data is extracted from the following two-line orbital elements,

1 20580U 90037B   14295.12942512  .00004774  00000-0  30810-3 0  1406
2 20580 028.4708 282.3773 0003019 200.1195 248.6883 15.05968982143863
Epoch (UTC): 22 October 2014 03:06:22
Eccentricity: 0.0003019
inclination: 28.4708°
perigee height: 546 km
apogee height: 550 km
right ascension of ascending node: 282.3773°
argument of perigee: 200.1195°
revolutions per day: 15.05968982
mean anomaly at epoch: 248.6883°
orbit number at epoch: 14386

The dashed part of the orbit path shows where the satellite is in the earth's shadow,  

DLR